COSMOS 2251 DEB, 38483

Orbit data source: Space-Track

COSMOS 2251 DEB, 38483 is space debris in LEO originally from a launch on Wed, 16 Jun 1993 UTC launched from the Plesetsk Missile And Space Complex (PKMTR). The debris from Iridium 33, an American commercial communications satellite, has been tracked extensively since its accidental collision with the defunct Russian satellite Cosmos 2251 in 2009. This event, occurring at high speed in low Earth orbit (LEO), generated thousands of pieces of space debris, significantly increasing the risk of further collisions. The Iridium 33 debris cloud has impacted space traffic management and orbital debris mitigation strategies, making it a subject of ongoing study in space situational awareness.

Loading next visibility...
Identifier
38483, 1993-036BTT
Orbit
LEO
Country
Flag of CISCIS
Related business
Manufacturer
Unknown
Mission
Spacecraft
Bus & Motor
Unknown
Mass
Unknown
Launch date (UTC)
1993-06-16 (33 years ago)
Launch vehicle
Unknown
Launch site
Plesetsk Missile And Space Complex (PKMTR)
Object type
Payload
Rocket body
Debris
Shape & HBR
Unknown shape, 0.1 m
Radar Cross Section
Small (<0.1 m²)

Expand to show TLE details & history
Last TLE update: 4 days ago

TLE from 4 days ago
0 COSMOS 2251 DEB
1 38483U 93036BTT 26174.87703413  .00001198  00000-0  44427-3 0  9993
2 38483  74.2600  25.7619 0113815  73.3462 288.0147 14.29662940662378
Epoch: 2026-06-23T21:02Z
TLE epoch observation values (Epoch: 2026-06-23T21:02:55.748Z)
Latitude
-0.00006°
Longitude
157.9873°
Altitude
771.074 km
Speed
7.481 km/s
True Right ascension
01h 43m 02s
True Declination
0° 00' 00"
Sunlit
Object was in daylight at epoch
Visualization orbit readout
Latitude
Unknown
Longitude
Unknown
Altitude
Unknown
Speed
Unknown
Apparent Right ascension
Unknown
Apparent Declination
Unknown
Sunlit
N/A
Visualization observer readout
Local Sidereal Time
04:29:50
Azimuth
Unknown
Elevation
Unknown
Doppler factor
Unknown
Orbital elements
Apogee altitude
872.059 km
Perigee altitude
708.88 km
Semi-major axis
7,168.606 km
Eccentricity
0.01138
Inclination
74.26°
RAAN
25.7619°
Arg. of periapsis
73.3462°
True anomaly
286.76903°
Mean anomaly
288.0147°
Eccentric anomaly
287.3924°
Mean motion
3.57595 °/min
Orbital period
100.67 mins
BSTAR
0.00044427
Loading maneuver chart data...
Computing Atmospheric mass density...

Documentation

Showing up to 5 results
|